Torna al catalogo

STARLINK-2517

AttivoComunicazioniVLEO
NORAD 48309·PAYLOAD·🇺🇸 United States

Lanciato Apr 29, 2021 da Cape Canaveral Space Force Station

Loading…

Prossimi Passaggi (prossime 24 ore)

TLE

AggiornatoSource: CelesTrak SupGP

Epoca: Sep 14, 2026, 21:03 UTC

1 48309C 21036AK  26257.87756944  .00023958  00000+0  77040-3 0  2572
2 48309  53.1582 288.4595 0001373  84.9638 282.4515 15.31691280    17

Traccia STARLINK-2517 in tempo reale con AllMySat

Download on the App Store